GW0268 Weather Reports


time (UTC)temp
C
wind
direction
speed
KPH
gust
KPH
rain 1hr
cm
rain 24hr
cm
rain mn
cm
humidity
%
barometer
mb
20260507070923 5 292 1.6 6.4 0.00 1.30 0.00 47 994.3
20260507070022 6 288 1.6 6.4 0.00 1.30 0.00 52 994.3
20260507065024 6 292 0.0 0.0 0.00 1.30 0.00 51 994.3
20260507064024 6 292 0.0 3.2 0.00 1.30 0.00 51 994.6
20260507063023 6 337 0.0 0.0 0.00 1.30 0.00 51 994.6
20260507062026 6 302 0.0 3.2 0.00 1.30 0.00 46 994.6
20260507061023 6 337 0.0 0.0 0.00 1.32 0.00 51 994.6
20260507060025 6 348 0.0 1.6 0.00 1.32 0.00 46 994.6
20260507055024 6 315 0.0 0.0 0.00 1.32 0.00 51 994.6
20260507054124 6 315 0.0 0.0 0.00 1.32 0.00 51 994.6
20260507053223 6 317 0.0 0.0 0.00 1.32 0.00 51 994.6
20260507051224 6 337 0.0 0.0 0.00 1.32 0.00 51 994.9
20260507050224 6 315 0.0 0.0 0.00 1.32 0.00 50 994.9
20260507045323 6 295 0.0 3.2 0.00 1.32 0.00 52 994.9
20260507044325 6 277 4.8 14.5 0.00 1.32 0.00 50 994.9
20260507043422 6 336 0.0 0.0 0.00 1.32 0.00 45 994.9
20260507042424 6 326 0.0 0.0 0.00 1.32 0.00 45 994.6
20260507041425 6 302 3.2 9.7 0.00 1.32 0.00 45 994.8
20260507040423 7 292 0.0 3.2 0.00 1.32 0.00 45 994.6
20260507034431 7 315 0.0 0.0 0.00 1.32 1.32 45 994.3
20260507033431 7 341 0.0 0.0 0.00 1.32 1.32 44 994.3
20260507032433 7 27 0.0 3.2 0.00 1.32 1.32 44 994.3
20260507031532 7 333 0.0 0.0 0.00 1.32 1.32 47 994.3
20260507030532 7 336 0.0 0.0 0.00 1.32 1.32 48 994.3
20260507025532 7 354 0.0 0.0 0.00 1.32 1.32 48 994.3
20260507024531 7 337 0.0 0.0 0.00 1.32 1.32 46 994.3
20260507023532 7 349 0.0 1.6 0.00 1.32 1.32 48 994.3
20260507022631 7 38 0.0 3.2 0.00 1.32 1.32 51 993.9
20260507021632 7 225 0.0 0.0 0.00 1.32 1.32 51 993.9
20260507020632 7 225 0.0 0.0 0.00 1.32 1.32 51 993.9
20260507014633 7 225 1.6 3.2 0.00 1.35 1.32 51 993.9
20260507013731 7 247 1.6 3.2 0.00 1.35 1.32 50 993.9
20260507012732 7 225 1.6 3.2 0.00 1.37 1.32 51 993.9
20260507011732 7 208 1.6 3.2 0.00 1.37 1.32 51 993.9
20260507005732 7 45 0.0 0.0 0.00 1.37 1.32 51 993.9
20260507004734 7 45 0.0 0.0 0.00 1.37 1.32 51 993.6
20260507003832 7 45 0.0 0.0 0.00 1.37 1.32 50 993.6
20260507002832 7 45 0.0 0.0 0.00 1.37 1.32 50 993.6
20260507002734 7 45 0.0 0.0 0.00 1.37 1.32 50 993.6
20260506235732 7 45 0.0 0.0 0.00 1.42 1.32 50 993.2
20260506234734 7 45 0.0 0.0 0.00 1.45 1.32 50 993.2
20260506232732 7 45 0.0 0.0 0.00 1.45 1.32 50 993.2
20260506231733 7 45 0.0 0.0 0.00 1.45 1.32 51 993.2
20260506230733 7 45 0.0 0.0 0.00 1.45 1.32 50 993.2
20260506225832 7 45 0.0 0.0 0.00 1.45 1.32 51 992.9
20260506224834 7 45 0.0 0.0 0.00 1.45 1.32 50 992.6
20260506223930 7 45 0.0 0.0 0.00 1.45 1.32 42 992.6
20260506222932 7 45 0.0 0.0 0.03 1.45 1.32 42 992.6
20260506221932 7 67 1.6 3.2 0.03 1.45 1.32 42 992.6
20260506220932 7 45 0.0 3.2 0.05 1.45 1.32 42 992.9
20260506215931 7 67 0.0 3.2 0.05 1.45 1.32 42 993.2
20260506214933 7 45 0.0 0.0 0.05 1.45 1.32 41 992.9
20260506214031 7 67 1.6 4.8 0.05 1.45 1.32 49 992.9
20260506213035 7 57 1.6 6.4 0.05 1.45 1.30 49 992.9
20260506211131 7 44 0.0 4.8 0.08 1.45 1.27 50 992.6
20260506210132 7 35 0.0 6.4 0.05 1.42 1.27 51 992.6
20260506205130 7 53 1.6 4.8 0.05 1.42 1.27 50 992.6
20260506204135 7 48 1.6 6.4 0.08 1.42 1.27 51 992.6
20260506203231 7 22 0.0 0.0 0.08 1.45 1.27 50 992.6
20260506201232 7 337 0.0 0.0 0.05 1.45 1.22 50 992.2
20260506195331 7 28 0.0 4.8 0.08 1.45 1.22 50 992.2
20260506194332 7 31 0.0 9.7 0.10 1.45 1.19 50 992.2
20260506193333 8 44 1.6 9.7 0.08 1.45 1.19 50 992.2
20260506192334 8 24 1.6 6.4 0.08 1.42 1.17 51 991.9
20260506191431 8 332 0.0 0.0 0.08 1.42 1.17 41 991.9
20260506190433 8 357 0.0 3.2 0.10 1.42 1.17 41 991.9
20260506185431 8 338 0.0 0.0 0.08 1.40 1.14 41 991.5
20260506184430 8 360 0.0 0.0 0.08 1.37 1.12 41 991.5
20260506183434 8 348 0.0 0.0 0.10 1.37 1.12 41 991.9
20260506182431 8 337 0.0 0.0 0.10 1.37 1.09 42 991.5
20260506175633 8 333 0.0 3.2 0.10 1.32 1.07 51 991.1
20260506174731 8 28 0.0 0.0 0.10 1.35 1.04 50 991.1
20260506173732 8 67 1.6 3.2 0.10 1.35 1.02 52 990.8
20260506172731 7 67 0.0 3.2 0.10 1.37 1.02 52 990.8
20260506171732 7 47 1.6 4.8 0.10 1.35 0.99 50 990.8
20260506170731 7 33 0.0 3.2 0.10 1.32 0.97 51 990.8
20260506165731 7 14 0.0 0.0 0.10 1.32 0.97 50 990.8
20260506164730 7 59 3.2 8.0 0.10 1.30 0.94 51 990.8
20260506162731 7 337 0.0 0.0 0.10 1.27 0.91 50 990.4
20260506161747 7 3 0.0 0.0 0.10 1.24 0.89 50 990.4
20260506160731 7 336 0.0 0.0 0.10 1.22 0.86 50 990.8
20260506155732 7 333 0.0 0.0 0.10 1.22 0.86 49 990.4
20260506153831 7 9 0.0 4.8 0.10 1.17 0.81 47 990.4
20260506152832 7 337 0.0 0.0 0.10 1.17 0.81 47 990.4
20260506151832 6 358 0.0 1.6 0.10 1.14 0.79 48 990.5
20260506145834 6 315 0.0 0.0 0.10 1.12 0.76 47 990.4
20260506144832 6 336 0.0 3.2 0.10 1.09 0.71 46 990.2
20260506143932 6 336 0.0 0.0 0.10 1.07 0.71 43 990.1
20260506142933 6 337 0.0 0.0 0.10 1.07 0.71 43 989.8
20260506141931 6 337 0.0 0.0 0.10 1.04 0.69 43 990.1
20260506141030 6 292 0.0 1.6 0.10 1.02 0.66 49 990.1
20260506140036 6 328 0.0 0.0 0.10 1.02 0.66 49 990.1
20260506135033 6 291 3.2 12.9 0.10 0.99 0.64 47 990.4
20260506133034 6 337 0.0 0.0 0.10 0.97 0.61 46 990.1
20260506132130 6 345 0.0 0.0 0.10 0.94 0.58 45 990.1
20260506131131 6 338 0.0 0.0 0.10 0.91 0.56 43 990.4
20260506130130 6 337 0.0 0.0 0.10 0.91 0.56 43 990.4
20260506125131 6 350 0.0 0.0 0.10 0.89 0.53 40 990.4
20260506124132 6 335 0.0 0.0 0.10 0.86 0.51 40 990.4
20260506123131 6 356 0.0 0.0 0.10 0.86 0.51 40 990.1
20260506122132 6 10 0.0 0.0 0.10 0.84 0.48 40 990.4
20260506121132 6 22 0.0 0.0 0.10 0.81 0.46 40 990.1
20260506120133 6 315 0.0 0.0 0.10 0.81 0.46 40 990.1
20260506115133 6 22 0.0 6.4 0.10 0.79 0.43 40 990.1
20260506113233 6 345 0.0 0.0 0.10 0.76 0.41 40 990.1
20260506112330 6 335 0.0 9.7 0.10 0.71 0.38 40 990.0
20260506111332 6 345 1.6 14.5 0.10 0.71 0.36 40 989.8
20260506110331 7 23 0.0 6.4 0.10 0.71 0.36 40 990.1
20260506102432 7 324 0.0 0.0 0.08 0.64 0.28 40 989.8
20260506101431 7 337 0.0 0.0 0.10 0.64 0.25 39 989.8
20260506095432 8 357 0.0 0.0 0.10 0.61 0.25 39 989.4
20260506094432 8 22 0.0 0.0 0.10 0.58 0.23 39 989.8
20260506093430 8 2 0.0 6.4 0.10 0.56 0.20 38 989.8
20260506092432 8 344 0.0 0.0 0.10 0.56 0.20 38 989.8
20260506091433 8 6 0.0 6.4 0.08 0.53 0.18 38 990.1
20260506090531 8 8 0.0 3.2 0.08 0.51 0.15 37 990.4
20260506085532 8 328 0.0 1.6 0.10 0.51 0.15 37 990.4
20260506084631 8 34 0.0 6.4 0.08 0.48 0.13 37 990.4
20260506083631 8 22 0.0 0.0 0.08 0.48 0.10 37 990.4
20260506082632 8 337 0.0 0.0 0.05 0.46 0.10 37 990.4
20260506081633 8 3 0.0 0.0 0.08 0.46 0.10 37 990.8
20260506080632 8 327 0.0 0.0 0.05 0.43 0.08 37 990.4
20260506072731 8 292 0.0 0.0 0.03 0.41 0.05 37 990.1